When you browse on this site, cookies collect data to enhance your experience and personalize the content and advertising you see.
Visit our Privacy Policy to learn more. By continuing to use the site, you agree to this use of cookies and data.
  • In Deutschland
  • Länderverzeichnis
  • Für 7 Tage
  • Wassertemperatur
  • Wetterkarte
  • Widgets
  • user-avatar
    Anmelden

    Stündliche Wetter Salta

    Heute, 10 Dezember, Dienstag

    Zeit Temperatur Niederschläge Wind Luftdruck Luftfeuchtigkeit
    00:00 +21°C° 0 mm 1 m/S 651 mmHg 75%
    01:00 +20°C° 0 mm 1 m/S 650 mmHg 76%
    02:00 +20°C° 0 mm 1 m/S 650 mmHg 77%
    03:00 +19°C° 0 mm 1 m/S 650 mmHg 76%
    04:00 +19°C° 0 mm 1 m/S 650 mmHg 76%
    05:00 +19°C° 0 mm 1 m/S 650 mmHg 76%
    06:00 +21°C° 0 mm 1 m/S 651 mmHg 69%
    07:00 +23°C° 0 mm 1 m/S 652 mmHg 63%
    08:00 +23°C° 0 mm 0 m/S 653 mmHg 57%
    09:00 +26°C° 0 mm 1 m/S 653 mmHg 53%
    10:00 +28°C° 0 mm 2 m/S 653 mmHg 49%
    11:00 +29°C° 0 mm 2 m/S 653 mmHg 45%
    12:00 +29°C° 0.1 mm 2 m/S 653 mmHg 44%
    13:00 +30°C° 0.1 mm 2 m/S 652 mmHg 42%
    14:00 +30°C° 0.1 mm 2 m/S 651 mmHg 41%
    15:00 +30°C° 0.2 mm 2 m/S 651 mmHg 44%
    16:00 +29°C° 0.2 mm 2 m/S 650 mmHg 47%
    17:00 +28°C° 0.2 mm 2 m/S 649 mmHg 51%
    18:00 +27°C° 0.1 mm 2 m/S 650 mmHg 55%
    19:00 +25°C° 0.1 mm 2 m/S 650 mmHg 60%
    20:00 +24°C° 0.1 mm 1 m/S 650 mmHg 65%
    21:00 +23°C° 0 mm 1 m/S 651 mmHg 66%
    22:00 +22°C° 0 mm 1 m/S 651 mmHg 67%
    23:00 +20°C° 0 mm 0 m/S 651 mmHg 69%

    Morgen, 11 Dezember, Mittwoch

    Zeit Temperatur Niederschläge Wind Luftdruck Luftfeuchtigkeit
    00:00 +19°C° 0 mm 0 m/S 650 mmHg 70%
    01:00 +21°C° 0 mm 1 m/S 650 mmHg 71%
    02:00 +21°C° 0 mm 1 m/S 649 mmHg 72%
    03:00 +20°C° 0 mm 1 m/S 649 mmHg 72%
    04:00 +20°C° 0 mm 1 m/S 649 mmHg 72%
    05:00 +20°C° 0 mm 1 m/S 649 mmHg 72%
    06:00 +22°C° 0 mm 1 m/S 650 mmHg 67%
    07:00 +22°C° 0 mm 0 m/S 651 mmHg 61%
    08:00 +24°C° 0 mm 0 m/S 651 mmHg 56%
    09:00 +28°C° 0 mm 1 m/S 651 mmHg 51%
    10:00 +29°C° 0 mm 2 m/S 651 mmHg 47%
    11:00 +31°C° 0 mm 3 m/S 651 mmHg 43%
    12:00 +31°C° 0 mm 3 m/S 650 mmHg 41%
    13:00 +33°C° 0 mm 3 m/S 650 mmHg 39%
    14:00 +34°C° 0 mm 3 m/S 649 mmHg 37%
    15:00 +34°C° 0 mm 3 m/S 648 mmHg 38%
    16:00 +33°C° 0 mm 3 m/S 647 mmHg 39%
    17:00 +33°C° 0 mm 3 m/S 646 mmHg 39%
    18:00 +30°C° 0 mm 2 m/S 646 mmHg 46%
    19:00 +28°C° 0 mm 2 m/S 646 mmHg 52%
    20:00 +26°C° 0 mm 1 m/S 646 mmHg 59%
    21:00 +25°C° 0 mm 1 m/S 646 mmHg 60%
    22:00 +25°C° 0 mm 1 m/S 647 mmHg 60%
    23:00 +24°C° 0 mm 1 m/S 647 mmHg 61%

    übermorgen, 12 Dezember, Donnerstag

    Zeit Temperatur Niederschläge Wind Luftdruck Luftfeuchtigkeit
    00:00 +24°C° 0 mm 1 m/S 647 mmHg 62%
    01:00 +21°C° 0 mm 0 m/S 647 mmHg 64%
    02:00 +21°C° 0 mm 0 m/S 647 mmHg 65%
    03:00 +21°C° 0 mm 0 m/S 647 mmHg 66%
    04:00 +20°C° 0 mm 0 m/S 647 mmHg 67%
    05:00 +22°C° 0 mm 1 m/S 647 mmHg 68%
    06:00 +24°C° 0.1 mm 1 m/S 648 mmHg 62%
    07:00 +27°C° 0.1 mm 1 m/S 650 mmHg 56%
    08:00 +29°C° 0.1 mm 1 m/S 651 mmHg 50%
    09:00 +30°C° 0.2 mm 2 m/S 651 mmHg 47%
    10:00 +31°C° 0.2 mm 2 m/S 651 mmHg 44%
    11:00 +34°C° 0.2 mm 3 m/S 652 mmHg 41%
    12:00 +33°C° 0.2 mm 3 m/S 651 mmHg 44%
    13:00 +32°C° 0.2 mm 4 m/S 650 mmHg 47%
    14:00 +30°C° 0.2 mm 4 m/S 650 mmHg 49%
    15:00 +29°C° 0.5 mm 4 m/S 649 mmHg 56%
    16:00 +27°C° 0.5 mm 3 m/S 648 mmHg 62%
    17:00 +26°C° 0.5 mm 3 m/S 648 mmHg 69%
    18:00 +25°C° 0.1 mm 3 m/S 648 mmHg 70%
    19:00 +24°C° 0.1 mm 2 m/S 649 mmHg 71%
    20:00 +24°C° 0.1 mm 2 m/S 649 mmHg 72%
    21:00 +23°C° 0.5 mm 1 m/S 650 mmHg 75%
    22:00 +23°C° 0.5 mm 1 m/S 650 mmHg 78%
    23:00 +22°C° 0.5 mm 1 m/S 651 mmHg 81%

    13 Dezember, Freitag

    Zeit Temperatur Niederschläge Wind Luftdruck Luftfeuchtigkeit
    00:00 +22°C° 0.8 mm 1 m/S 650 mmHg 83%
    01:00 +21°C° 0.8 mm 1 m/S 650 mmHg 85%
    02:00 +21°C° 0.8 mm 1 m/S 650 mmHg 88%
    03:00 +21°C° 0.2 mm 1 m/S 650 mmHg 88%
    04:00 +20°C° 0.2 mm 1 m/S 650 mmHg 88%
    05:00 +20°C° 0.2 mm 1 m/S 650 mmHg 87%
    06:00 +20°C° 0 mm 1 m/S 650 mmHg 85%
    07:00 +21°C° 0 mm 1 m/S 651 mmHg 83%
    08:00 +21°C° 0 mm 1 m/S 651 mmHg 81%
    09:00 +23°C° 0 mm 1 m/S 651 mmHg 76%
    10:00 +24°C° 0 mm 1 m/S 651 mmHg 71%
    11:00 +26°C° 0 mm 2 m/S 652 mmHg 66%
    12:00 +26°C° 0.1 mm 2 m/S 651 mmHg 65%
    13:00 +27°C° 0.1 mm 2 m/S 650 mmHg 63%
    14:00 +27°C° 0.1 mm 2 m/S 650 mmHg 61%
    15:00 +26°C° 0.1 mm 2 m/S 649 mmHg 66%
    16:00 +25°C° 0.1 mm 1 m/S 649 mmHg 70%
    17:00 +24°C° 0.1 mm 1 m/S 648 mmHg 75%
    18:00 +24°C° 0.1 mm 1 m/S 649 mmHg 77%
    19:00 +23°C° 0.1 mm 1 m/S 649 mmHg 80%
    20:00 +23°C° 0.1 mm 1 m/S 649 mmHg 82%
    21:00 +22°C° 0 mm 1 m/S 650 mmHg 84%
    22:00 +22°C° 0 mm 1 m/S 650 mmHg 85%
    23:00 +22°C° 0 mm 1 m/S 650 mmHg 86%

    14 Dezember, Samstag

    Zeit Temperatur Niederschläge Wind Luftdruck Luftfeuchtigkeit
    00:00 +22°C° 0 mm 1 m/S 650 mmHg 86%
    01:00 +22°C° 0 mm 1 m/S 649 mmHg 85%
    02:00 +22°C° 0 mm 1 m/S 649 mmHg 84%
    03:00 +22°C° 0 mm 1 m/S 649 mmHg 85%
    04:00 +19°C° 0 mm 0 m/S 649 mmHg 86%
    05:00 +19°C° 0 mm 0 m/S 648 mmHg 87%
    06:00 +20°C° 0 mm 0 m/S 649 mmHg 82%
    07:00 +24°C° 0 mm 1 m/S 650 mmHg 76%
    08:00 +25°C° 0 mm 1 m/S 650 mmHg 70%
    09:00 +27°C° 0 mm 1 m/S 650 mmHg 67%
    10:00 +28°C° 0 mm 2 m/S 650 mmHg 63%
    11:00 +29°C° 0 mm 2 m/S 650 mmHg 59%
    12:00 +30°C° 0.1 mm 2 m/S 650 mmHg 57%
    13:00 +30°C° 0.1 mm 2 m/S 649 mmHg 55%
    14:00 +31°C° 0.1 mm 2 m/S 648 mmHg 53%
    15:00 +31°C° 0.1 mm 2 m/S 648 mmHg 54%
    16:00 +30°C° 0.1 mm 2 m/S 648 mmHg 55%
    17:00 +30°C° 0.1 mm 1 m/S 647 mmHg 56%
    18:00 +28°C° 0.6 mm 1 m/S 648 mmHg 62%
    19:00 +27°C° 0.6 mm 1 m/S 648 mmHg 67%
    20:00 +25°C° 0.6 mm 1 m/S 648 mmHg 73%
    21:00 +25°C° 1.9 mm 1 m/S 649 mmHg 76%
    22:00 +24°C° 1.9 mm 1 m/S 649 mmHg 79%
    23:00 +24°C° 1.9 mm 1 m/S 649 mmHg 83%

    15 Dezember, Sonntag

    Zeit Temperatur Niederschläge Wind Luftdruck Luftfeuchtigkeit
    00:00 +23°C° 0.1 mm 1 m/S 649 mmHg 83%
    01:00 +23°C° 0.1 mm 1 m/S 648 mmHg 84%
    02:00 +22°C° 0.1 mm 1 m/S 648 mmHg 84%
    03:00 +22°C° 0 mm 1 m/S 648 mmHg 84%
    04:00 +22°C° 0 mm 1 m/S 648 mmHg 84%
    05:00 +22°C° 0 mm 1 m/S 648 mmHg 84%
    06:00 +23°C° 0 mm 1 m/S 649 mmHg 78%
    07:00 +25°C° 0 mm 1 m/S 650 mmHg 72%
    08:00 +27°C° 0 mm 1 m/S 651 mmHg 66%
    09:00 +27°C° 0.5 mm 2 m/S 651 mmHg 66%
    10:00 +28°C° 0.5 mm 2 m/S 651 mmHg 65%
    11:00 +29°C° 0.5 mm 3 m/S 651 mmHg 65%
    12:00 +27°C° 2.7 mm 3 m/S 650 mmHg 71%
    13:00 +26°C° 2.7 mm 3 m/S 650 mmHg 77%
    14:00 +25°C° 2.7 mm 3 m/S 649 mmHg 82%
    15:00 +22°C° 2.4 mm 3 m/S 648 mmHg 87%
    16:00 +21°C° 2.4 mm 2 m/S 648 mmHg 91%
    17:00 +21°C° 2.4 mm 1 m/S 648 mmHg 95%
    18:00 +21°C° 0.8 mm 1 m/S 648 mmHg 95%
    19:00 +21°C° 0.8 mm 1 m/S 649 mmHg 94%
    20:00 +19°C° 0.8 mm 0 m/S 649 mmHg 94%
    21:00 +21°C° 0.1 mm 1 m/S 650 mmHg 93%
    22:00 +21°C° 0.1 mm 1 m/S 650 mmHg 93%
    23:00 +21°C° 0.1 mm 1 m/S 651 mmHg 92%
    Mehr zeigen